ECHOSTAR 16

Last updated on Sun Oct 06 2024 00:02:40 GMT+0000 (Coordinated Universal Time)

1 39008U 12065A 24278.81362625 -.00000273 00000+0 00000+0 0 9991 2 39008 0.0176 153.2497 0002006 29.7706 62.3726 1.00269697 43582
UTC large
Height (km)
Speed (km/s)
/
Latitude / Longitude
Inclination (degrees)
Orbital Period (minutes)
Azimuth
Elevation
Range (km)
Doppler Factor

Next 0 passes for location: London (51.5072 / 0.1276)

Sorry there are no passes over London.